BERRYESSA (BER)

Elevation: 456' · PUTAH CR basin · Operator: US Bureau of Reclamation

Provisional data, subject to change.
Query executed Saturday at 22:46:03   clock

Select a sensor type for a plot of data.
Note: Reservoir Flows are daily averages.

Earlier

Date RES ELE    STORAGE    OUTFLOW    INFLOW    PPT INC   
 FEET   AF   CFS   CFS   INCHES  
09/26/2014 402.40 912094 361 99 0.01
09/27/2014 402.37 911642 339 167 0.05
09/28/2014 402.29 910439 324 -222 0.00
09/29/2014 402.27 910138 305 195 0.00
09/30/2014 402.19 908936 290 -232 0.00
10/01/2014 402.14 908185 280 -22 0.00
10/02/2014 402.11 907734 280 154 0.00
10/03/2014 402.05 906834 288 -74 0.00
10/04/2014 402.01 906233 314 122 0.00
10/05/2014 401.96 905483 341 103 0.00
10/06/2014 401.90 904583 350 17 0.00
10/07/2014 401.86 903984 350 173 0.00
10/08/2014 401.82 903385 350 149 0.00
10/09/2014 401.77 902636 365 79 0.00
10/10/2014 401.69 901438 390 -103 0.00
10/11/2014 401.64 900690 390 100 0.00
10/12/2014 401.56 899493 380 -136 0.00
10/13/2014 401.52 898895 362 205 0.00
10/14/2014 401.45 897849 330 -96 0.00
10/15/2014 401.44 897700 177 160 0.02
10/16/2014 401.40 897102 88 -170 0.19
10/17/2014 401.39 896953 107 85 0.00
10/18/2014 401.38 896804 110 83 0.00
10/19/2014 401.35 896356 110 -68 0.00
10/20/2014 -- -- -- -- --
10/21/2014 -- -- -- -- --
10/22/2014 -- -- -- -- --
10/23/2014 -- -- -- -- --
10/24/2014 -- -- -- -- --
10/25/2014 -- -- -- -- --

Later | Latest

Warning! This data is preliminary and subject to revision.

Show BER Map | Plot BER Data | 1 Month BER Data | Real-Time BER Data | BER Info